Flag for Switzerland Weather past 2 weeks in Winterthur, Switzerland

Now
57 °F

Passing clouds.


Feels Like: 57 °F
Forecast: 35 / 66 °F
Wind: 3 mph from Northeast

Location: Zurich-Kloten

Current Time: Sep 23, 2014 at 8:43:47 PM

Latest Report: Sep 23, 2014 at 7:50 PM


Visibility: N/A

Pressure: 30.04 "Hg

Humidity: 59%

Dew point: 43 °F

Location of WinterthurLocation

Historic Weather in Winterthur — Graph

°F

Winterthur temperature yesterday

Maximum temperature yesterday: 61 °F (at 2:50 PM)
Minimum temperature yesterday: 46 °F (at 10:50 PM)
Average temperature yesterday: 54 °F

Past Weeks' High & Low Weather Summary

 TemperatureHumidityPressure
High77 °F (Sep 9, 3:20 PM)100% (Sep 9, 2:50 AM)30.18 "Hg (Sep 9, 2:50 AM)
Low39 °F (Sep 23, 4:50 AM)45% (Sep 23, 5:50 PM)29.86 "Hg (Sep 17, 4:50 PM)
Average60 °F84%30.03 "Hg
* Reported Sep 8 7:20 PM — Sep 23 7:50 PM, Winterthur, Weather by CustomWeather, © 2014

Note: Actual official high and low records may vary slightly from our data, if they occured in-between our weather recording intervals... More about our weather records

Advertising

Winterthur weather history for previous 24 hours

 ConditionsComfort  
Time TempWeatherWind HumidityBarometerVisibility
7:50 PM
Sep 23
57 °FPassing clouds.3 mph59%30.04 "HgN/A
7:20 PM59 °FSunny.3 mph51%30.04 "Hg10 mi
6:50 PM61 °FPassing clouds.5 mph52%30.04 "HgN/A
6:20 PM61 °FPassing clouds.7 mph52%30.01 "HgN/A
5:50 PM63 °FSunny.7 mph45%30.04 "Hg10 mi
5:20 PM63 °FPassing clouds.8 mph52%30.04 "HgN/A
4:50 PM63 °FSunny.10 mph49%30.04 "Hg10 mi
4:20 PM63 °FPassing clouds.10 mph52%30.04 "HgN/A
3:50 PM63 °FPassing clouds.9 mph49%30.04 "HgN/A
3:20 PM61 °FPassing clouds.9 mph52%30.07 "HgN/A
2:50 PM61 °FPassing clouds.9 mph52%30.07 "HgN/A
2:20 PM59 °FPassing clouds.12 mph55%30.09 "HgN/A
1:50 PM57 °FSunny.17 mph55%30.09 "Hg10 mi
1:20 PM57 °FSunny.15 mph59%30.09 "Hg10 mi
12:50 PM57 °FPassing clouds.8 mph59%30.12 "HgN/A
12:20 PM55 °FPassing clouds.9 mph59%30.12 "HgN/A
11:50 AM54 °FPassing clouds.9 mph63%30.15 "HgN/A
11:20 AM54 °FPassing clouds.9 mph63%30.18 "HgN/A
10:50 AM52 °FPassing clouds.7 mph67%30.18 "HgN/A
10:20 AM50 °FPassing clouds.5 mph76%30.18 "HgN/A
9:50 AM48 °FPassing clouds.5 mph82%30.18 "HgN/A
9:20 AM46 °FSunny.6 mph87%30.18 "Hg10 mi
8:50 AM45 °FSunny.5 mph93%30.18 "Hg10 mi
8:20 AM43 °FPassing clouds.3 mph93%30.18 "HgN/A
7:50 AM41 °FClear.5 mph93%30.18 "Hg6 mi
7:20 AM39 °FClear.5 mph93%30.18 "Hg4 mi
6:50 AM39 °FClear.5 mph93%30.18 "Hg4 mi
6:20 AM41 °FClear.7 mph93%30.15 "Hg5 mi
5:50 AM41 °FClear.5 mph93%30.15 "Hg5 mi
5:20 AM39 °FClear.3 mph93%30.18 "Hg5 mi
4:50 AM39 °FClear.3 mph93%30.18 "Hg10 mi
4:20 AM41 °FClear.6 mph93%30.18 "Hg10 mi
3:50 AM43 °FClear.7 mph93%30.18 "Hg10 mi
3:20 AM43 °FClear.6 mph87%30.15 "Hg10 mi
2:50 AM43 °FPassing clouds.3 mph87%30.15 "HgN/A
1:50 AM45 °FPassing clouds.No wind81%30.15 "HgN/A
1:20 AM46 °FPassing clouds.6 mph82%30.15 "HgN/A
12:50 AM48 °FPassing clouds.6 mph76%30.18 "HgN/A
12:20 AM48 °FPassing clouds.5 mph82%30.18 "HgN/A
11:50 PM
Sep 22
46 °FPassing clouds.5 mph93%30.18 "HgN/A
11:20 PM46 °FPassing clouds.1 mph93%30.18 "HgN/A
10:50 PM46 °FClear.2 mph93%30.15 "Hg10 mi
10:20 PM50 °FPassing clouds.3 mph82%30.15 "HgN/A
9:50 PM50 °FPassing clouds.1 mph88%30.18 "HgN/A
9:20 PM52 °FPassing clouds.3 mph88%30.18 "HgN/A
8:50 PM54 °FPassing clouds.3 mph72%30.18 "HgN/A
8:20 PM52 °FSunny.3 mph77%30.15 "Hg10 mi
Weather by CustomWeather, © 2014

See weather overviewHow to use our weather pages